Location: *
(44.3925°N, 5.4708°E)
Time: 16:01:22
(UTC+00:00)

SJ-6B - Pass Details

Date: 18 September 2019
Orbit: 509 x 583 km, 97.6° (Epoch: 19 October)

Event Time Altitude Azimuth Distance (km) Brightness Sun altitude
Exits shadow 18:32:03 - 129° (SE) 1,954 5.1 -9.4°
Reaches altitude 10° 18:32:12 10° 128° (SE) 1,898 5.0 -9.4°
Maximum altitude 18:35:45 29° 69° (ENE) 1,090 3.9 -10.0°
Drops below altitude 10° 18:39:17 10° 9° (N) 1,894 5.6 -10.6°
Sets 18:41:38 0° 358° (N) 2,787 6.6 -11.0°
